Onweer van: 19-06-2019 13:00 tot: 23:00 waarschuwing voor: Onweer niveau: Geel info button

waarschuwing voor Onweer Meer informatie blitzortung!


Regen radar Meer informatie rain snow radar



Select another period ( hide this area )

Eenheden Periode Custom range Directly to
Metrisch Engels Beide
Dagelijkse Wekelijkse Maandelijkse Jaarlijkse
use both date-selectors for a custom range
previous Dag
With this date

WeatherUnderground graphs for this period ( click here )


Dagelijkse Samenvatting Woensdag 19 juni 2019
Tijd Temp. ( °C ) Dew pt. ( °C ) Wind ( km/h ) van Windvlaag ( km/h ) Luchtdruk ( hPa ) Humid.( % ) Rainrate ( cm ) Zonneschijn ( W/m2 )
Hoog24,9 18,8 24,1 ONO ( 140/665 ) 30,6 1009,0 93 6,10 977
Gemiddeld19,9 16,3 3,7 Kalm #47/182 8,0 1006,4 80 7,70 308 #119/182
Laag16,8 14,4 -   0,0 1004,6 60 -  
Dagelijkse Tabular details for Woensdag 19 juni 2019
Tijd Temp. ( °C ) Dew pt. ( °C ) Wind ( km/h ) van Windvlaag ( km/h ) Luchtdruk ( hPa ) Humid.( % ) Rainrate ( cm ) Zonneschijn ( W/m2 )
00:03 20,1 16,5 3,2 NO 8,0 1009,0 80 - -
00:09 20,1 16,7 7,9 NNO 9,7 1009,0 81 - -
00:13 20,1 16,7 6,4 ONO 6,4 1009,0 81 - -
00:19 20,1 16,7 1,4 NO 8,0 1009,0 81 - -
00:23 20,1 16,7 7,9 NO 14,5 1009,0 81 - -
00:29 20,1 16,7 4,7 ONO 12,9 1009,0 81 - -
00:33 20,1 16,7 6,4 NO 11,3 1009,0 81 - -
00:39 20,1 16,7 6,4 NO 9,7 1009,0 81 - -
00:43 20,0 16,6 4,7 NO 11,3 1009,0 81 - -
00:49 19,9 16,5 4,7 NO 8,0 1008,7 81 - -
00:53 19,9 16,7 1,4 NO 8,0 1008,7 82 - -
00:59 19,8 16,6 4,7 NO 9,7 1008,7 82 - -
01:03 19,8 16,6 3,2 NO 11,3 1008,4 82 - -
01:09 19,8 16,6 6,4 NO 6,4 1008,4 82 - -
01:13 19,8 16,6 6,4 ONO 9,7 1008,4 82 - -
01:19 19,7 16,7 4,7 ONO 4,8 1008,4 83 - -
01:23 19,7 16,7 3,2 ONO 4,8 1008,4 83 - -
01:29 19,6 16,6 1,4 ONO 6,4 1008,4 83 - -
01:33 19,5 16,5 1,4 ONO 4,8 1008,4 83 - -
01:39 19,4 16,4 4,7 ONO 4,8 1008,4 83 - -
01:43 19,3 16,3 3,2 NO 4,8 1008,4 83 - -
01:49 19,2 16,4 3,2 NO 6,4 1008,0 84 - -
01:53 19,2 16,4   Kalm 4,8 1008,0 84 - -
01:59 19,1 16,3   Kalm 6,4 1008,0 84 - -
02:03 19,0 16,2   Kalm 3,2 1008,0 84 - -
02:09 18,8 16,2   Kalm 1,6 1008,0 85 - -
02:13 18,8 16,2   Kalm   1008,0 85 - -
02:19 18,7 16,1   Kalm   1008,0 85 - -
02:23 18,6 16,0 1,4 NO 4,8 1008,0 85 - -
02:27 18,4 15,8 1,4 ONO 4,8 1008,0 85 - -
02:33 18,3 15,7 3,2 ONO 8,0 1007,7 85 - -
02:37 18,3 15,7 4,7 ONO 4,8 1007,7 85 - -
02:44 18,2 15,6 3,2 ONO 4,8 1007,7 85 - -
02:48 18,2 15,6 4,7 ONO 8,0 1007,7 85 - -
02:54 18,2 15,5 3,2 ONO 8,0 1007,7 84 - -
02:58 18,2 15,5 4,7 ONO 8,0 1007,7 84 - -
03:04 18,1 15,4 4,7 ONO 8,0 1007,7 84 - -
03:08 18,1 15,4 3,2 ONO 6,4 1007,7 84 - -
03:14 18,1 15,4 3,2 ONO 6,4 1007,7 84 - -
03:18 18,1 15,4 6,4 ONO 6,4 1007,3 84 - -
03:24 18,1 15,4 4,7 ONO 4,8 1007,3 84 - -
03:28 18,1 15,4 3,2 ONO 6,4 1007,3 84 - -
03:34 18,0 15,3 4,7 ONO 6,4 1007,3 84 - -
03:38 17,9 15,2 1,4 ONO 3,2 1007,3 84 - -
03:44 17,8 15,1 3,2 ONO 3,2 1007,3 84 - -
03:48 17,8 15,1 3,2 ONO 4,8 1007,0 84 - -
03:54 17,7 15,1 3,2 ONO 4,8 1007,0 85 - -
03:58 17,6 15,0 1,4 ONO 4,8 1007,0 85 - -
04:04 17,5 14,9   Kalm 3,2 1007,0 85 - -
04:08 17,4 14,9   Kalm   1007,0 85 - -
04:14 17,4 14,9   Kalm 1,6 1007,0 85 - -
04:18 17,3 14,9   Kalm   1006,7 86 - -
04:24 17,2 14,7 1,4 ONO 3,2 1006,7 85 - -
04:28 17,2 14,8   Kalm 1,6 1006,7 86 - -
04:34 17,1 14,7   Kalm 3,2 1006,3 86 - -
04:38 17,0 14,6   Kalm 3,2 1006,3 86 - -
04:42 16,9 14,5   Kalm   1006,3 86 - -
04:49 16,9 14,5   Kalm   1006,3 86 - -
04:53 16,8 14,4   Kalm   1006,3 86 - -
04:59 16,8 14,6   Kalm 1,6 1006,3 87 - -
05:03 16,8 14,6   Kalm 3,2 1006,3 87 - -
05:09 16,8 14,6   Kalm 1,6 1006,3 87 - -
05:13 16,8 14,6   Kalm 1,6 1006,3 87 - -
05:19 16,8 14,6   Kalm 1,6 1006,3 87 - 5
05:23 16,8 14,6   Kalm 1,6 1006,3 87 - 5
05:29 16,8 14,6 1,4 ONO 1,6 1006,3 87 - 9
05:33 16,8 14,8   Kalm 8,0 1006,3 88 - 12
05:39 16,8 14,8 3,2 OZO 6,4 1006,3 88 - 16
05:43 16,8 14,8   Kalm 4,8 1006,3 88 - 19
05:49 16,8 14,8 1,4 OZO 4,8 1006,0 88 - 23
05:53 16,9 14,9 1,4 OZO 6,4 1006,0 88 - 25
05:59 16,9 14,9   Kalm 4,8 1006,0 88 - 26
06:03 17,0 15,0 1,4 OZO 6,4 1005,6 88 - 28
06:09 17,1 15,1 1,4 OZO 9,7 1005,6 88 - 56
06:13 17,2 15,2 1,4 ZO 8,0 1005,6 88 - 46
06:19 17,2 15,2 1,4 OZO 8,0 1005,6 88 - 72
06:23 17,3 15,1   Kalm 6,4 1005,6 87 - 76
06:29 17,4 15,2   Kalm 8,0 1005,6 87 - 70
06:33 17,6 15,4 3,2 Oosten 3,2 1005,3 87 - 49
06:39 17,7 15,5   Kalm 3,2 1005,3 87 - 107
06:43 17,8 15,6 1,4 OZO 4,8 1005,3 87 - 111
06:49 18,1 15,9 3,2 OZO 3,2 1005,3 87 - 127
06:53 18,2 15,8   Kalm 1,6 1005,3 86 - 137
06:59 18,6 16,2   Kalm 3,2 1005,3 86 - 156
07:03 18,7 16,1   Kalm 3,2 1005,3 85 - 167
07:09 19,2 16,4 3,2 OZO 4,8 1005,3 84 - 183
07:13 19,3 16,3 1,4 OZO 4,8 1005,3 83 - 192
07:19 19,6 16,4 1,4 Oosten 3,2 1005,0 82 - 207
07:23 19,7 16,5   Kalm 4,8 1005,0 82 - 223
07:29 19,9 16,5 3,2 ZO 6,4 1005,0 81 - 220
07:33 19,9 16,5 4,7 ZO 6,4 1005,0 81 - 236
07:39 20,0 16,6 1,4 OZO 11,3 1005,0 81 - 255
07:43 20,2 17,0   Kalm 4,8 1005,0 82 - 236
07:49 20,3 16,7 7,9 OZO 12,9 1004,6 80 - 274
07:53 20,4 16,8 4,7 ZZO 8,0 1004,6 80 - 260
07:59 20,6 16,8   Kalm 3,2 1004,6 79 - 334
08:03 20,8 17,0 1,4 OZO 3,2 1005,3 79 - 329
08:09 21,2 17,4   Kalm 1,6 1005,3 79 - 297
08:13 21,4 17,2 4,7 WZW 6,4 1005,3 77 - 366
08:19 21,7 17,5 4,7 ZW 12,9 1005,6 77 - 420
08:23 21,8 17,4 17,7 WZW 30,6 1005,6 76 - 410
08:29 21,3 17,1 11,1 Westen 20,9 1007,0 77 - 84
08:33 21,1 17,1 7,9 WNW 12,9 1007,0 78 - 121
08:39 20,8 17,0 9,7 Westen 20,9 1007,0 79 - 234
08:43 20,8 17,0 20,9 Westen 22,5 1007,0 79 - 367
08:49 21,1 17,1 4,7 Westen 24,1 1006,3 78 - 506
08:53 21,3 16,9 9,7 NW 20,9 1006,3 76 - 508
08:59 21,7 16,6 6,4 Noorden 11,3 1005,3 73 - 406
09:03 21,9 16,6 4,7 NW 16,1 1005,3 72 - 513
09:09 22,2 16,7 6,4 WNW 14,5 1005,3 71 - 487
09:13 22,4 16,9 6,4 WNW 11,3 1005,3 71 - 445
09:19 22,6 16,4 7,9 Westen 14,5 1005,3 68 - 380
09:23 22,7 16,3 7,9 NNW 11,3 1005,3 67 - 401
09:29 22,7 15,8 14,3 WNW 22,5 1005,6 65 - 517
09:33 22,7 15,3 4,7 WNW 25,7 1005,6 63 - 548
09:39 22,3 14,9 9,7 NW 16,1 1005,6 63 - 86
09:43 21,9 15,3 7,9 WNW 14,5 1005,6 66 - 26
09:49 21,3 14,9 9,7 WNW 17,7 1006,3 67 - 9
09:53 20,8 14,7 9,7 Westen 16,1 1006,3 68 - 9
09:57 20,5 14,8 4,7 WNW 12,9 1006,3 70 - 12
10:04 20,1 14,9 7,9 WNW 17,7 1007,3 72 - 7
10:08 19,9 15,1 24,1 WZW 24,1 1007,3 74 0,50 5
10:14 18,8 15,7 4,7 ONO 6,4 1007,3 82 4,30 5
10:18 18,1 15,5 7,9 NO 11,3 1006,3 85 5,80 7
10:24 17,3 15,1 6,4 Noorden 12,9 1006,3 87 5,80 11
10:28 17,1 15,1   Kalm 9,7 1006,3 88 5,80 14
10:34 16,9 15,2 3,2 NNO 6,4 1005,0 90 5,80 25
10:38 16,9 15,2 6,4 OZO 12,9 1005,0 90 5,80 35
10:44 16,8 15,3   Kalm 1,6 1005,0 91 6,10 60
10:48 16,9 15,4 1,4 ZO 1,6 1005,3 91 6,10 88
10:54 17,1 15,6 3,2 ZO 4,8 1005,3 91 6,10 148
10:58 17,2 15,9 3,2 ONO 6,4 1005,3 92 6,10 209
11:04 17,4 16,1 4,7 ONO 6,4 1005,0 92 6,10 327
11:08 17,7 16,4 6,4 ONO 8,0 1005,0 92 5,60 496
11:14 18,4 17,2 7,9 ONO 8,0 1005,0 93 1,50 606
11:18 18,6 17,3 7,9 NO 11,3 1004,6 92 0,30 710
11:24 19,1 17,8 4,7 ONO 14,5 1004,6 92 0,30 717
11:28 19,3 17,8 9,7 Oosten 12,9 1004,6 91 0,30 691
11:34 19,9 18,2 1,4 OZO 8,0 1005,0 90 0,30 571
11:38 20,2 18,1 3,2 ONO 8,0 1005,0 88 0,30 796
11:44 20,8 18,6 1,4 ONO 1,6 1005,0 87 - 789
11:48 21,4 18,6   Kalm 3,2 1005,3 84 - 777
11:54 21,9 18,1 1,4 ZO 3,2 1005,3 79 - 817
11:58 22,3 18,7   Kalm 3,2 1005,3 80 - 733
12:04 22,7 18,5 1,4 ZZO 8,0 1006,0 77 - 742
12:08 22,8 18,1 1,4 ZO 9,7 1006,0 75 - 469
12:14 22,7 17,8   Kalm 9,7 1006,0 74 - 345
12:18 22,8 18,1 7,9 ZW 8,0 1006,0 75 - 316
12:24 22,5 17,8 3,2 Zuiden 9,7 1006,0 75 - 325
12:28 22,4 18,0 1,4 ZW 9,7 1006,0 76 - 313
12:34 22,4 18,0 4,7 ZW 9,7 1006,3 76 - 332
12:38 22,3 17,9 4,7 ZZO 9,7 1006,3 76 - 373
12:44 22,4 18,0 4,7 ZZO 6,4 1006,3 76 - 478
12:48 22,6 17,9 3,2 ZZW 12,9 1006,3 75 - 733
12:54 22,9 18,2 1,4 Zuiden 12,9 1006,3 75 - 373
12:58 22,8 17,9 3,2 ZZW 11,3 1006,3 74 - 436
13:04 23,0 18,1 9,7 WZW 12,9 1006,3 74 - 436
13:08 23,3 18,4 3,2 Zuiden 6,4 1006,3 74 - 369
13:14 23,1 17,8 7,9 ZW 16,1 1006,3 72 - 977
13:18 23,2 18,5 6,4 ZZW 11,3 1006,3 75 - 837
13:24 23,9 18,8 7,9 ZZW 8,0 1006,3 73 - 833
13:28 23,9 18,3 1,4 Zuiden 11,3 1006,3 71 - 780
13:33 24,0 18,6 7,9 Zuiden 14,5 1006,3 72 - 824
13:39 24,1 18,1 11,1 ZZW 11,3 1006,3 69 - 497
13:43 24,2 17,9 4,7 ZW 14,5 1006,3 68 - 798
13:49 24,4 17,1 13,0 Westen 19,3 1006,3 64 - 812
13:53 24,4 17,9 1,4 ZZW 9,7 1006,3 67 - 854
13:59 24,9 17,1 1,4 ZW 14,5 1006,3 62 - 353
14:03 24,8 16,5 7,9 ZW 11,3 1006,3 60 - 367
14:09 24,6 16,6 4,7 ZW 12,9 1006,3 61 - 357
14:13 24,6 17,1 3,2 WZW 9,7 1006,3 63 - 294
14:19 24,6 17,1 1,4 Zuiden 9,7 1006,0 63 - 311
14:23 24,4 17,1   Kalm 8,0 1006,0 64 - 209
14:29 24,1 17,1 4,7 Zuiden 8,0 1006,0 65 - 149
14:33 23,8 16,8   Kalm 8,0 1006,0 65 - 123
14:39 23,6 17,3 1,4 ZZW 3,2 1006,0 68 - 105
14:43 23,5 17,3 1,4 ZW 3,2 1006,0 68 - 111
14:49 23,5 17,5   Kalm   1005,6 69 - 185
14:53 23,4 17,4   Kalm 3,2 1005,6 69 - 225
14:59 23,4 17,6   Kalm 6,4 1005,6 70 - 179
15:03 23,5 17,5   Kalm 1,6 1005,3 69 - 174
15:09 23,6 17,6   Kalm   1005,3 69 - 141
Dagelijkse Samenvatting Woensdag 19 juni 2019
Tijd Temp. ( °C ) Dew pt. ( °C ) Wind ( km/h ) van Windvlaag ( km/h ) Luchtdruk ( hPa ) Humid.( % ) Rainrate ( cm ) Zonneschijn ( W/m2 )
Hoog24,9 18,8 24,1 ONO ( 140/665 ) 30,6 1009,0 93 6,10 977
Gemiddeld19,9 16,3 3,7 Kalm #47/182 8,0 1006,4 80 7,70 308 #119/182
Laag16,8 14,4 -   0,0 1004,6 60 -  
Dagelijkse Tabular details for Woensdag 19 juni 2019
Tijd Temp. ( °C ) Dew pt. ( °C ) Wind ( km/h ) van Windvlaag ( km/h ) Luchtdruk ( hPa ) Humid.( % ) Rainrate ( cm ) Zonneschijn ( W/m2 )
00:03 20,1 16,5 3,2 NO 8,0 1009,0 80 - -
00:09 20,1 16,7 7,9 NNO 9,7 1009,0 81 - -
00:13 20,1 16,7 6,4 ONO 6,4 1009,0 81 - -
00:19 20,1 16,7 1,4 NO 8,0 1009,0 81 - -
00:23 20,1 16,7 7,9 NO 14,5 1009,0 81 - -
00:29 20,1 16,7 4,7 ONO 12,9 1009,0 81 - -
00:33 20,1 16,7 6,4 NO 11,3 1009,0 81 - -
00:39 20,1 16,7 6,4 NO 9,7 1009,0 81 - -
00:43 20,0 16,6 4,7 NO 11,3 1009,0 81 - -
00:49 19,9 16,5 4,7 NO 8,0 1008,7 81 - -
00:53 19,9 16,7 1,4 NO 8,0 1008,7 82 - -
00:59 19,8 16,6 4,7 NO 9,7 1008,7 82 - -
01:03 19,8 16,6 3,2 NO 11,3 1008,4 82 - -
01:09 19,8 16,6 6,4 NO 6,4 1008,4 82 - -
01:13 19,8 16,6 6,4 ONO 9,7 1008,4 82 - -
01:19 19,7 16,7 4,7 ONO 4,8 1008,4 83 - -
01:23 19,7 16,7 3,2 ONO 4,8 1008,4 83 - -
01:29 19,6 16,6 1,4 ONO 6,4 1008,4 83 - -
01:33 19,5 16,5 1,4 ONO 4,8 1008,4 83 - -
01:39 19,4 16,4 4,7 ONO 4,8 1008,4 83 - -
01:43 19,3 16,3 3,2 NO 4,8 1008,4 83 - -
01:49 19,2 16,4 3,2 NO 6,4 1008,0 84 - -
01:53 19,2 16,4   Kalm 4,8 1008,0 84 - -
01:59 19,1 16,3   Kalm 6,4 1008,0 84 - -
02:03 19,0 16,2   Kalm 3,2 1008,0 84 - -
02:09 18,8 16,2   Kalm 1,6 1008,0 85 - -
02:13 18,8 16,2   Kalm   1008,0 85 - -
02:19 18,7 16,1   Kalm   1008,0 85 - -
02:23 18,6 16,0 1,4 NO 4,8 1008,0 85 - -
02:27 18,4 15,8 1,4 ONO 4,8 1008,0 85 - -
02:33 18,3 15,7 3,2 ONO 8,0 1007,7 85 - -
02:37 18,3 15,7 4,7 ONO 4,8 1007,7 85 - -
02:44 18,2 15,6 3,2 ONO 4,8 1007,7 85 - -
02:48 18,2 15,6 4,7 ONO 8,0 1007,7 85 - -
02:54 18,2 15,5 3,2 ONO 8,0 1007,7 84 - -
02:58 18,2 15,5 4,7 ONO 8,0 1007,7 84 - -
03:04 18,1 15,4 4,7 ONO 8,0 1007,7 84 - -
03:08 18,1 15,4 3,2 ONO 6,4 1007,7 84 - -
03:14 18,1 15,4 3,2 ONO 6,4 1007,7 84 - -
03:18 18,1 15,4 6,4 ONO 6,4 1007,3 84 - -
03:24 18,1 15,4 4,7 ONO 4,8 1007,3 84 - -
03:28 18,1 15,4 3,2 ONO 6,4 1007,3 84 - -
03:34 18,0 15,3 4,7 ONO 6,4 1007,3 84 - -
03:38 17,9 15,2 1,4 ONO 3,2 1007,3 84 - -
03:44 17,8 15,1 3,2 ONO 3,2 1007,3 84 - -
03:48 17,8 15,1 3,2 ONO 4,8 1007,0 84 - -
03:54 17,7 15,1 3,2 ONO 4,8 1007,0 85 - -
03:58 17,6 15,0 1,4 ONO 4,8 1007,0 85 - -
04:04 17,5 14,9   Kalm 3,2 1007,0 85 - -
04:08 17,4 14,9   Kalm   1007,0 85 - -
04:14 17,4 14,9   Kalm 1,6 1007,0 85 - -
04:18 17,3 14,9   Kalm   1006,7 86 - -
04:24 17,2 14,7 1,4 ONO 3,2 1006,7 85 - -
04:28 17,2 14,8   Kalm 1,6 1006,7 86 - -
04:34 17,1 14,7   Kalm 3,2 1006,3 86 - -
04:38 17,0 14,6   Kalm 3,2 1006,3 86 - -
04:42 16,9 14,5   Kalm   1006,3 86 - -
04:49 16,9 14,5   Kalm   1006,3 86 - -
04:53 16,8 14,4   Kalm   1006,3 86 - -
04:59 16,8 14,6   Kalm 1,6 1006,3 87 - -
05:03 16,8 14,6   Kalm 3,2 1006,3 87 - -
05:09 16,8 14,6   Kalm 1,6 1006,3 87 - -
05:13 16,8 14,6   Kalm 1,6 1006,3 87 - -
05:19 16,8 14,6   Kalm 1,6 1006,3 87 - 5
05:23 16,8 14,6   Kalm 1,6 1006,3 87 - 5
05:29 16,8 14,6 1,4 ONO 1,6 1006,3 87 - 9
05:33 16,8 14,8   Kalm 8,0 1006,3 88 - 12
05:39 16,8 14,8 3,2 OZO 6,4 1006,3 88 - 16
05:43 16,8 14,8   Kalm 4,8 1006,3 88 - 19
05:49 16,8 14,8 1,4 OZO 4,8 1006,0 88 - 23
05:53 16,9 14,9 1,4 OZO 6,4 1006,0 88 - 25
05:59 16,9 14,9   Kalm 4,8 1006,0 88 - 26
06:03 17,0 15,0 1,4 OZO 6,4 1005,6 88 - 28
06:09 17,1 15,1 1,4 OZO 9,7 1005,6 88 - 56
06:13 17,2 15,2 1,4 ZO 8,0 1005,6 88 - 46
06:19 17,2 15,2 1,4 OZO 8,0 1005,6 88 - 72
06:23 17,3 15,1   Kalm 6,4 1005,6 87 - 76
06:29 17,4 15,2   Kalm 8,0 1005,6 87 - 70
06:33 17,6 15,4 3,2 Oosten 3,2 1005,3 87 - 49
06:39 17,7 15,5   Kalm 3,2 1005,3 87 - 107
06:43 17,8 15,6 1,4 OZO 4,8 1005,3 87 - 111
06:49 18,1 15,9 3,2 OZO 3,2 1005,3 87 - 127
06:53 18,2 15,8   Kalm 1,6 1005,3 86 - 137
06:59 18,6 16,2   Kalm 3,2 1005,3 86 - 156
07:03 18,7 16,1   Kalm 3,2 1005,3 85 - 167
07:09 19,2 16,4 3,2 OZO 4,8 1005,3 84 - 183
07:13 19,3 16,3 1,4 OZO 4,8 1005,3 83 - 192
07:19 19,6 16,4 1,4 Oosten 3,2 1005,0 82 - 207
07:23 19,7 16,5   Kalm 4,8 1005,0 82 - 223
07:29 19,9 16,5 3,2 ZO 6,4 1005,0 81 - 220
07:33 19,9 16,5 4,7 ZO 6,4 1005,0 81 - 236
07:39 20,0 16,6 1,4 OZO 11,3 1005,0 81 - 255
07:43 20,2 17,0   Kalm 4,8 1005,0 82 - 236
07:49 20,3 16,7 7,9 OZO 12,9 1004,6 80 - 274
07:53 20,4 16,8 4,7 ZZO 8,0 1004,6 80 - 260
07:59 20,6 16,8   Kalm 3,2 1004,6 79 - 334
08:03 20,8 17,0 1,4 OZO 3,2 1005,3 79 - 329
08:09 21,2 17,4   Kalm 1,6 1005,3 79 - 297
08:13 21,4 17,2 4,7 WZW 6,4 1005,3 77 - 366
08:19 21,7 17,5 4,7 ZW 12,9 1005,6 77 - 420
08:23 21,8 17,4 17,7 WZW 30,6 1005,6 76 - 410
08:29 21,3 17,1 11,1 Westen 20,9 1007,0 77 - 84
08:33 21,1 17,1 7,9 WNW 12,9 1007,0 78 - 121
08:39 20,8 17,0 9,7 Westen 20,9 1007,0 79 - 234
08:43 20,8 17,0 20,9 Westen 22,5 1007,0 79 - 367
08:49 21,1 17,1 4,7 Westen 24,1 1006,3 78 - 506
08:53 21,3 16,9 9,7 NW 20,9 1006,3 76 - 508
08:59 21,7 16,6 6,4 Noorden 11,3 1005,3 73 - 406
09:03 21,9 16,6 4,7 NW 16,1 1005,3 72 - 513
09:09 22,2 16,7 6,4 WNW 14,5 1005,3 71 - 487
09:13 22,4 16,9 6,4 WNW 11,3 1005,3 71 - 445
09:19 22,6 16,4 7,9 Westen 14,5 1005,3 68 - 380
09:23 22,7 16,3 7,9 NNW 11,3 1005,3 67 - 401
09:29 22,7 15,8 14,3 WNW 22,5 1005,6 65 - 517
09:33 22,7 15,3 4,7 WNW 25,7 1005,6 63 - 548
09:39 22,3 14,9 9,7 NW 16,1 1005,6 63 - 86
09:43 21,9 15,3 7,9 WNW 14,5 1005,6 66 - 26
09:49 21,3 14,9 9,7 WNW 17,7 1006,3 67 - 9
09:53 20,8 14,7 9,7 Westen 16,1 1006,3 68 - 9
09:57 20,5 14,8 4,7 WNW 12,9 1006,3 70 - 12
10:04 20,1 14,9 7,9 WNW 17,7 1007,3 72 - 7
10:08 19,9 15,1 24,1 WZW 24,1 1007,3 74 0,50 5
10:14 18,8 15,7 4,7 ONO 6,4 1007,3 82 4,30 5
10:18 18,1 15,5 7,9 NO 11,3 1006,3 85 5,80 7
10:24 17,3 15,1 6,4 Noorden 12,9 1006,3 87 5,80 11
10:28 17,1 15,1   Kalm 9,7 1006,3 88 5,80 14
10:34 16,9 15,2 3,2 NNO 6,4 1005,0 90 5,80 25
10:38 16,9 15,2 6,4 OZO 12,9 1005,0 90 5,80 35
10:44 16,8 15,3   Kalm 1,6 1005,0 91 6,10 60
10:48 16,9 15,4 1,4 ZO 1,6 1005,3 91 6,10 88
10:54 17,1 15,6 3,2 ZO 4,8 1005,3 91 6,10 148
10:58 17,2 15,9 3,2 ONO 6,4 1005,3 92 6,10 209
11:04 17,4 16,1 4,7 ONO 6,4 1005,0 92 6,10 327
11:08 17,7 16,4 6,4 ONO 8,0 1005,0 92 5,60 496
11:14 18,4 17,2 7,9 ONO 8,0 1005,0 93 1,50 606
11:18 18,6 17,3 7,9 NO 11,3 1004,6 92 0,30 710
11:24 19,1 17,8 4,7 ONO 14,5 1004,6 92 0,30 717
11:28 19,3 17,8 9,7 Oosten 12,9 1004,6 91 0,30 691
11:34 19,9 18,2 1,4 OZO 8,0 1005,0 90 0,30 571
11:38 20,2 18,1 3,2 ONO 8,0 1005,0 88 0,30 796
11:44 20,8 18,6 1,4 ONO 1,6 1005,0 87 - 789
11:48 21,4 18,6   Kalm 3,2 1005,3 84 - 777
11:54 21,9 18,1 1,4 ZO 3,2 1005,3 79 - 817
11:58 22,3 18,7   Kalm 3,2 1005,3 80 - 733
12:04 22,7 18,5 1,4 ZZO 8,0 1006,0 77 - 742
12:08 22,8 18,1 1,4 ZO 9,7 1006,0 75 - 469
12:14 22,7 17,8   Kalm 9,7 1006,0 74 - 345
12:18 22,8 18,1 7,9 ZW 8,0 1006,0 75 - 316
12:24 22,5 17,8 3,2 Zuiden 9,7 1006,0 75 - 325
12:28 22,4 18,0 1,4 ZW 9,7 1006,0 76 - 313
12:34 22,4 18,0 4,7 ZW 9,7 1006,3 76 - 332
12:38 22,3 17,9 4,7 ZZO 9,7 1006,3 76 - 373
12:44 22,4 18,0 4,7 ZZO 6,4 1006,3 76 - 478
12:48 22,6 17,9 3,2 ZZW 12,9 1006,3 75 - 733
12:54 22,9 18,2 1,4 Zuiden 12,9 1006,3 75 - 373
12:58 22,8 17,9 3,2 ZZW 11,3 1006,3 74 - 436
13:04 23,0 18,1 9,7 WZW 12,9 1006,3 74 - 436
13:08 23,3 18,4 3,2 Zuiden 6,4 1006,3 74 - 369
13:14 23,1 17,8 7,9 ZW 16,1 1006,3 72 - 977
13:18 23,2 18,5 6,4 ZZW 11,3 1006,3 75 - 837
13:24 23,9 18,8 7,9 ZZW 8,0 1006,3 73 - 833
13:28 23,9 18,3 1,4 Zuiden 11,3 1006,3 71 - 780
13:33 24,0 18,6 7,9 Zuiden 14,5 1006,3 72 - 824
13:39 24,1 18,1 11,1 ZZW 11,3 1006,3 69 - 497
13:43 24,2 17,9 4,7 ZW 14,5 1006,3 68 - 798
13:49 24,4 17,1 13,0 Westen 19,3 1006,3 64 - 812
13:53 24,4 17,9 1,4 ZZW 9,7 1006,3 67 - 854
13:59 24,9 17,1 1,4 ZW 14,5 1006,3 62 - 353
14:03 24,8 16,5 7,9 ZW 11,3 1006,3 60 - 367
14:09 24,6 16,6 4,7 ZW 12,9 1006,3 61 - 357
14:13 24,6 17,1 3,2 WZW 9,7 1006,3 63 - 294
14:19 24,6 17,1 1,4 Zuiden 9,7 1006,0 63 - 311
14:23 24,4 17,1   Kalm 8,0 1006,0 64 - 209
14:29 24,1 17,1 4,7 Zuiden 8,0 1006,0 65 - 149
14:33 23,8 16,8   Kalm 8,0 1006,0 65 - 123
14:39 23,6 17,3 1,4 ZZW 3,2 1006,0 68 - 105
14:43 23,5 17,3 1,4 ZW 3,2 1006,0 68 - 111
14:49 23,5 17,5   Kalm   1005,6 69 - 185
14:53 23,4 17,4   Kalm 3,2 1005,6 69 - 225
14:59 23,4 17,6   Kalm 6,4 1005,6 70 - 179
15:03 23,5 17,5   Kalm 1,6 1005,3 69 - 174
15:09 23,6 17,6   Kalm   1005,3 69 - 141

Download your copy of this data-set  here

Our weather-data as stored at Weather Underground. Script ontwikkeld door Jim McMurry. Aangepast voor de template door Leuven-Template.eu

U vindt ons ook hier:

UK Metoffice

European Weather Network

WeatherCloud

Weather Underground

AWEKAS

Apparatuur in gebruik:

Weerstation
Davis VP2

Weerprogramma
Meteobridge

Weercomputer
Asus WL -330N3G

Webleverancier
Ongekend.nl

Davis VP2

Meteobridge

Asus WL -330N3G

Ongekend.nl